Regional Weather Roundup
Issued by NWS

Home | Current Version | Previous Version | Text Only | Print | Product List | Glossary On
Versions: 1 2 3 4 5 6 7 8 9 10 11 12 13 14 15 16 17 18 19 20 21 22 23 24 25 26 27 28 29 30 31 32 33 34 35 36 37 38 39 40 41 42 43 44 45 46 47 48 49 50
000
ASUS43 KMPX 300410
RWRMN
WEATHER ROUNDUP FOR MINNESOTA
NATIONAL WEATHER SERVICE TWIN CITIES/CHANHASSEN MN
1100 PM CDT MON SEP 29 2014


NOTE: "FAIR" INDICATES FEW OR NO CLOUDS BELOW 12,000 FEET WITH NO
SIGNIFICANT WEATHER AND/OR OBSTRUCTIONS TO VISIBILITY. N/A MEANS
CURRENT SKY AND/OR WEATHER CONDITIONS ARE NOT AVAILABLE.

MNZ060>063-068>070-300500-
   Twin Cities Metro

CITY           SKY/WX    TMP DP  RH WIND       PRES   REMARKS
TWIN CITIES    CLEAR     47  41  80 NE10      30.11S
ST PAUL        CLEAR     47  42  83 NE9       30.12F
CRYSTAL        CLEAR     46  40  79 NE7       30.10F
BLAINE         CLEAR     46  45  93 NE8       30.11F
LAKEVILLE      CLEAR     45  43  93 NE8       30.09F
EDEN PRAIRIE   CLEAR     48  43  82 NE10      30.09S
SOUTH ST PAUL  CLEAR     47  41  79 NE5       30.11S
LAKE ELMO      FAIR      45  41  87 NE9       30.12S
$$
MNZ001>005-007-008-013>017-022>024-027-028-300500-
   Northwest Minnesota

CITY           SKY/WX    TMP DP  RH WIND       PRES   REMARKS
BEMIDJI        CLEAR     45  42  89 SE10      30.12S
HALLOCK        CLEAR     46  45  93 E6        30.08F
ROSEAU         CLEAR     45  39  81 SE8       30.12S
WARROAD        CLEAR     43  39  87 SE13      30.14S
THIEF RVR FALL CLEAR     46  43  87 E7        30.09F
CROOKSTON      CLEAR     48  45  87 SE7       30.08F
FOSSTON        CLEAR     41  39  93 E3        30.10F
DETROIT LAKES  MOCLDY    46  43  87 SE15G21   30.09S
PARK RAPIDS    CLOUDY    49  42  77 E8        30.11F
MAHNOMEN       FAIR      46  43  88 S3        30.09S
$$
MNZ006-009>011-018-025>026-300500-
   North Central Minnesota

CITY           SKY/WX    TMP DP  RH WIND       PRES   REMARKS
BAUDETTE       MOCLDY    43  40  89 SE8       30.15F
FLAG ISLAND    CLOUDY    46  45  93 SE10      30.13F
INTL FALLS     CLOUDY    43  39  86 SE7       30.17F
WASKISH        CLEAR     39  39 100 CALM      30.14F
BIG FORK       CLOUDY    46  41  81 E6        30.16F
LONGVILLE      CLOUDY    48  43  81 E5        30.13S
GRAND RAPIDS   CLOUDY    45  39  81 SE7       30.16S
CRANE LAKE     CLOUDY    41  39  93 CALM      30.21S
ORR            CLOUDY    43  37  81 CALM      30.15F
COOK           CLOUDY    43  39  87 E3        30.18S
WALKER         CLOUDY    47  42  80 SE7       30.12F
$$
MNZ012-019>021-037-300500-
   Northeast Minnesota

CITY           SKY/WX    TMP DP  RH WIND       PRES   REMARKS
DULUTH         CLOUDY    44  39  82 E12       30.17F
ELY            CLOUDY    43  37  81 E7        30.18F
HIBBING        CLOUDY    45  41  86 SE5       30.17F
EVELETH        CLOUDY    45  41  87 CALM      30.18S
DULUTH HARBOR  CLOUDY    48  43  81 E18G26    30.19F
TWO HARBORS    CLOUDY    43  37  81 E6        30.17F
SILVER BAY     MOCLDY    43  43 100 CALM      30.19S
GRAND MARAIS     N/A     43  36  76 VRB3      30.22F
G MARAIS ARPRT CLOUDY    36  32  87 NE3       30.20F FOG
$$
MNZ029>031-032-039>041-046>048-054>057-064-300500-
   West Central Minnesota

CITY           SKY/WX    TMP DP  RH WIND       PRES   REMARKS
FERGUS FALLS   CLEAR     48  43  81 SE9       30.07F
WHEATON        CLEAR     45  43  93 E6        30.08S
MORRIS         CLEAR     48  45  87 E10       30.06S
ALEXANDRIA     MOCLDY    45  42  89 E17       30.09F
ELBOW LAKE     FAIR      48  45  88 SE10      30.07R
WADENA         MOCLDY    46  41  81 SE8       30.10S
GLENWOOD       CLEAR     45  43  93 E9        30.09S
APPLETON       CLEAR     50  45  81 E8        30.07R
BENSON         CLEAR     46  45  93 SE7       30.08S
ORTONVILLE     CLEAR     50  45  81 E8        30.05F
MADISON        PTCLDY    52  48  87 E6        30.06S
WILLMAR        FAIR      48  43  81 E10       30.09S
$$
MNZ033>034-036-042>043-049>051-058-059-300500-
   Central Minnesota

CITY           SKY/WX    TMP DP  RH WIND       PRES   REMARKS
ST CLOUD       MOCLDY    45  40  82 E5        30.12S
SAUK CENTRE    FAIR      43  40  90 E10       30.10F
PAYNESVILLE    CLEAR     42  40  92 NE6       30.10S
AITKIN         CLOUDY    45  39  81 E7        30.14F
PINE RIVER     CLOUDY    46  41  81 E12       30.16S
BRAINERD       CLOUDY    43  40  89 E7G17     30.14S
STAPLES        CLEAR     45  39  81 E3        30.11F
LONG PRAIRIE   MOCLDY    43  39  87 NE9       30.11F
LITTLE FALLS   CLEAR     41  36  81 E6        30.13S
LITCHFIELD     CLEAR     46  45  93 E9        30.10S
BUFFALO        CLEAR     45  40  84 NE8       30.12S
MAPLE LAKE     CLEAR     45  42  90 NE10      30.12S
$$
MNZ037-044-045-052-053-300500-
   East Central Minnesota

CITY           SKY/WX    TMP DP  RH WIND       PRES   REMARKS
PRINCETON      MOCLDY    45  39  81 NE6       30.13S
MORA           CLOUDY    43  37  81 E8        30.16F
CAMBRIDGE      PTCLDY    46  36  66 NE8       30.12S
RUSH CITY      CLOUDY    43  39  85 NE7       30.14S
MOOSE LAKE     CLOUDY    43  36  75 NE9       30.16S
HINCKLEY       CLOUDY    43  39  87 NE6       30.16S
CLOQUET        CLOUDY    43  39  87 E6        30.17S
MCGREGOR       CLOUDY    43  39  87 E8        30.17S
$$
MNZ071>073-080-081-089-090-097-098-300500-
   Southwest Minnesota

CITY           SKY/WX    TMP DP  RH WIND       PRES   REMARKS
MONTEVIDEO     CLEAR     48  46  93 SE8       30.08S
GRANITE FALLS  CLEAR     49  46  88 E3        30.08S
CANBY          PTCLDY    50  47  90 E5        30.06F
MARSHALL       PTCLDY    52  45  76 E10       30.04F
REDWOOD FALLS  CLEAR     50  46  86 E8        30.07S
OLIVIA         CLEAR     50  45  81 E9        30.07S
PIPESTONE      CLEAR     52  48  87 E15G21    30.02S
WINDOM         CLEAR     52  48  87 E8        30.05S
WORTHINGTON    CLEAR     52  48  87 E9        30.05S
JACKSON        CLEAR     52  46  82 E8        30.05F
TRACY          CLEAR     51  48  90 E7        30.05F
SLAYTON        CLEAR     50  48  91 E10G17    30.05S
$$
MNZ065>067-074>077-082>085-091>093-300500-
   South Central Minnesota

CITY           SKY/WX    TMP DP  RH WIND       PRES   REMARKS
MANKATO        CLEAR     52  43  71 E10       30.07S
NEW ULM        CLEAR     50  46  87 E5        30.07S
ST JAMES       CLEAR     50  46  87 CALM      30.07S
FAIRMONT       CLEAR     52  45  76 NE6       30.05S
GLENCOE        CLEAR     47  42  82 NE3       30.09S
FARIBAULT      CLEAR     50  43  76 NE8       30.08S
OWATONNA       CLEAR     48  45  87 NE7       30.07S
WASECA         CLEAR     48  41  76 NE7       30.08S
ALBERT LEA     CLEAR     52  48  87 NE3       30.06S
$$
MNZ078>079-086>088-094>096-300500-
   Southeast Minnesota

CITY           SKY/WX    TMP DP  RH WIND       PRES   REMARKS
ROCHESTER      CLEAR     48  44  86 NE9       30.08S
RED WING       CLEAR     46  41  81 CALM      30.10R
STANTON        CLEAR     47  43  85 NE6       30.08S
DODGE CENTER   PTCLDY    48  45  87 NE8       30.07S
WINONA         CLEAR     50  43  76 E5        30.08F
AUSTIN         CLEAR     48  46  93 NE3       30.06S
PRESTON        CLEAR     47  45  91 NE6       30.07S
$$
ABBREVIATIONS USED IN REMARKS
   TC - TEMPERATURES IN CELSIUS
  WCI - WIND CHILL INDEX
   HX - HEAT INDEX
  VSB - VISIBILITY
$$


USA.gov is the U.S. government's official web portal to all federal, state and local government web resources and services.